Location: Alfortville
(48.8058°N, 2.4204°E)
Time: 13:18:54
(UTC+00:00)

Meteor 1-19 Rocket - Pass Details

Date: 08 December 2023
Orbit: 806 x 928 km, 81.2° (Epoch: 01 March)

Event Time Altitude Azimuth Distance (km) Brightness Sun altitude
Rises 06:08:45 0° 349° (NNW) 3,589 7.2 -12.7°
Reaches altitude 10° 06:11:16 10° 351° (N) 2,637 6.5 -12.3°
Maximum altitude 06:17:19 75° 76° (ENE) 952 4.6 -11.4°
Drops below altitude 10° 06:23:12 10° 162° (SSE) 2,566 7.3 -10.5°
Sets 06:25:37 0° 165° (SSE) 3,485 8.0 -10.1°
